When you browse on this site, cookies collect data to enhance your experience and personalize the content and advertising you see.
Visit our Privacy Policy to learn more. By continuing to use the site, you agree to this use of cookies and data.
  • In Romania
  • List of Countries
  • For 7 days
  • Water Temperature
  • Weather Map
  • Weather Widgets
  • user-avatar
    Login

    Hourly Weather Linz

    Today, 21 August, Wednesday

    Time Temperature Precipitation Wind Pressure Humidity
    00:00 +16°C° 0.1 mm 5 mps 738 mmHg 94%
    01:00 +15°C° 0.1 mm 5 mps 739 mmHg 93%
    02:00 +15°C° 0.4 mm 5 mps 739 mmHg 94%
    03:00 +15°C° 0.4 mm 5 mps 740 mmHg 94%
    04:00 +14°C° 0.4 mm 4 mps 740 mmHg 95%
    05:00 +14°C° 0.4 mm 4 mps 741 mmHg 95%
    06:00 +14°C° 0.4 mm 3 mps 741 mmHg 95%
    07:00 +15°C° 0.4 mm 2 mps 741 mmHg 95%
    08:00 +15°C° 0.5 mm 2 mps 741 mmHg 93%
    09:00 +16°C° 0.5 mm 1 mps 741 mmHg 91%
    10:00 +18°C° 0.5 mm 1 mps 742 mmHg 89%
    11:00 +19°C° 0.1 mm 1 mps 742 mmHg 83%
    12:00 +20°C° 0.1 mm 1 mps 741 mmHg 76%
    13:00 +20°C° 0.1 mm 0 mps 741 mmHg 70%
    14:00 +22°C° 0 mm 1 mps 741 mmHg 69%
    15:00 +22°C° 0 mm 1 mps 741 mmHg 68%
    16:00 +21°C° 0 mm 2 mps 741 mmHg 67%
    17:00 +21°C° 0 mm 1 mps 741 mmHg 73%
    18:00 +20°C° 0 mm 1 mps 740 mmHg 79%
    19:00 +18°C° 0 mm 1 mps 740 mmHg 85%
    20:00 +18°C° 0 mm 1 mps 740 mmHg 87%
    21:00 +16°C° 0 mm 1 mps 740 mmHg 88%
    22:00 +16°C° 0 mm 1 mps 740 mmHg 90%
    23:00 +16°C° 0 mm 2 mps 740 mmHg 89%

    Tomorrow, 22 August, Thursday

    Time Temperature Precipitation Wind Pressure Humidity
    00:00 +15°C° 0 mm 2 mps 740 mmHg 89%
    01:00 +15°C° 0 mm 2 mps 740 mmHg 88%
    02:00 +15°C° 0.1 mm 2 mps 740 mmHg 89%
    03:00 +15°C° 0.1 mm 2 mps 740 mmHg 89%
    04:00 +15°C° 0.1 mm 2 mps 739 mmHg 90%
    05:00 +15°C° 0.1 mm 2 mps 740 mmHg 88%
    06:00 +16°C° 0.1 mm 2 mps 740 mmHg 86%
    07:00 +16°C° 0.1 mm 3 mps 740 mmHg 84%
    08:00 +18°C° 0.1 mm 3 mps 740 mmHg 79%
    09:00 +19°C° 0.1 mm 3 mps 740 mmHg 75%
    10:00 +20°C° 0.1 mm 3 mps 740 mmHg 70%
    11:00 +21°C° 0 mm 3 mps 739 mmHg 66%
    12:00 +22°C° 0 mm 3 mps 739 mmHg 63%
    13:00 +24°C° 0 mm 3 mps 739 mmHg 59%
    14:00 +25°C° 0 mm 3 mps 739 mmHg 60%
    15:00 +25°C° 0 mm 3 mps 739 mmHg 60%
    16:00 +25°C° 0 mm 3 mps 739 mmHg 61%
    17:00 +23°C° 0.1 mm 2 mps 739 mmHg 67%
    18:00 +21°C° 0.1 mm 2 mps 739 mmHg 74%
    19:00 +19°C° 0.1 mm 2 mps 739 mmHg 80%
    20:00 +18°C° 0 mm 2 mps 739 mmHg 83%
    21:00 +18°C° 0 mm 1 mps 739 mmHg 86%
    22:00 +16°C° 0 mm 1 mps 740 mmHg 88%
    23:00 +16°C° 0 mm 1 mps 740 mmHg 89%

    Day after tomorrow, 23 August, Friday

    Time Temperature Precipitation Wind Pressure Humidity
    00:00 +16°C° 0 mm 1 mps 740 mmHg 90%
    01:00 +15°C° 0 mm 1 mps 740 mmHg 92%
    02:00 +15°C° 0 mm 1 mps 739 mmHg 92%
    03:00 +15°C° 0 mm 1 mps 739 mmHg 93%
    04:00 +15°C° 0 mm 1 mps 739 mmHg 94%
    05:00 +15°C° 0 mm 1 mps 739 mmHg 91%
    06:00 +16°C° 0 mm 1 mps 739 mmHg 89%
    07:00 +18°C° 0 mm 1 mps 739 mmHg 86%
    08:00 +20°C° 0 mm 1 mps 739 mmHg 81%
    09:00 +20°C° 0 mm 2 mps 739 mmHg 75%
    10:00 +23°C° 0 mm 2 mps 739 mmHg 69%
    11:00 +24°C° 0 mm 2 mps 739 mmHg 67%
    12:00 +26°C° 0 mm 3 mps 739 mmHg 64%
    13:00 +27°C° 0 mm 3 mps 738 mmHg 61%
    14:00 +27°C° 0.1 mm 3 mps 738 mmHg 63%
    15:00 +27°C° 0.1 mm 3 mps 738 mmHg 65%
    16:00 +27°C° 0.1 mm 3 mps 738 mmHg 67%
    17:00 +25°C° 0.3 mm 2 mps 738 mmHg 73%
    18:00 +24°C° 0.3 mm 2 mps 737 mmHg 80%
    19:00 +22°C° 0.3 mm 1 mps 737 mmHg 86%
    20:00 +22°C° 0.6 mm 1 mps 738 mmHg 88%
    21:00 +21°C° 0.6 mm 1 mps 738 mmHg 90%
    22:00 +21°C° 0.6 mm 1 mps 738 mmHg 92%
    23:00 +20°C° 0.1 mm 1 mps 738 mmHg 92%

    24 August, Saturday

    Time Temperature Precipitation Wind Pressure Humidity
    00:00 +20°C° 0.1 mm 1 mps 737 mmHg 93%
    01:00 +19°C° 0.1 mm 1 mps 737 mmHg 94%
    02:00 +19°C° 0 mm 1 mps 737 mmHg 94%
    03:00 +19°C° 0 mm 1 mps 737 mmHg 94%
    04:00 +16°C° 0 mm 0 mps 737 mmHg 95%
    05:00 +17°C° 0 mm 0 mps 737 mmHg 94%
    06:00 +18°C° 0 mm 0 mps 737 mmHg 93%
    07:00 +18°C° 0 mm 0 mps 737 mmHg 92%
    08:00 +20°C° 0 mm 0 mps 737 mmHg 86%
    09:00 +23°C° 0 mm 1 mps 737 mmHg 80%
    10:00 +25°C° 0 mm 1 mps 737 mmHg 74%
    11:00 +26°C° 0 mm 1 mps 737 mmHg 70%
    12:00 +27°C° 0 mm 1 mps 736 mmHg 66%
    13:00 +29°C° 0 mm 1 mps 736 mmHg 61%
    14:00 +29°C° 0 mm 1 mps 736 mmHg 61%
    15:00 +29°C° 0 mm 1 mps 736 mmHg 62%
    16:00 +29°C° 0 mm 1 mps 735 mmHg 62%
    17:00 +27°C° 0.3 mm 1 mps 735 mmHg 68%
    18:00 +26°C° 0.3 mm 1 mps 735 mmHg 75%
    19:00 +24°C° 0.3 mm 1 mps 735 mmHg 81%
    20:00 +23°C° 0 mm 1 mps 735 mmHg 83%
    21:00 +23°C° 0 mm 1 mps 735 mmHg 84%
    22:00 +22°C° 0 mm 1 mps 736 mmHg 85%
    23:00 +21°C° 0.2 mm 1 mps 735 mmHg 86%

    25 August, Sunday

    Time Temperature Precipitation Wind Pressure Humidity
    00:00 +21°C° 0.2 mm 1 mps 735 mmHg 87%
    01:00 +20°C° 0.2 mm 1 mps 735 mmHg 89%
    02:00 +20°C° 0.1 mm 1 mps 735 mmHg 89%
    03:00 +17°C° 0.1 mm 0 mps 735 mmHg 90%
    04:00 +17°C° 0.1 mm 0 mps 735 mmHg 90%
    05:00 +18°C° 0.2 mm 0 mps 735 mmHg 89%
    06:00 +19°C° 0.2 mm 0 mps 735 mmHg 88%
    07:00 +19°C° 0.2 mm 0 mps 735 mmHg 87%
    08:00 +23°C° 0 mm 1 mps 735 mmHg 82%
    09:00 +24°C° 0 mm 1 mps 736 mmHg 77%
    10:00 +26°C° 0 mm 1 mps 736 mmHg 72%
    11:00 +27°C° 0.1 mm 1 mps 736 mmHg 67%
    12:00 +28°C° 0.1 mm 1 mps 735 mmHg 63%
    13:00 +30°C° 0.1 mm 1 mps 735 mmHg 59%
    14:00 +30°C° 0.1 mm 1 mps 735 mmHg 58%
    15:00 +30°C° 0.1 mm 1 mps 735 mmHg 57%
    16:00 +30°C° 0.1 mm 1 mps 735 mmHg 57%
    17:00 +28°C° 0.2 mm 1 mps 735 mmHg 63%
    18:00 +26°C° 0.2 mm 1 mps 735 mmHg 70%
    19:00 +25°C° 0.2 mm 1 mps 735 mmHg 76%
    20:00 +24°C° 0.5 mm 1 mps 735 mmHg 80%
    21:00 +23°C° 0.5 mm 1 mps 736 mmHg 84%
    22:00 +22°C° 0.5 mm 1 mps 736 mmHg 87%
    23:00 +21°C° 0.4 mm 1 mps 736 mmHg 88%

    26 August, Monday

    Time Temperature Precipitation Wind Pressure Humidity
    00:00 +21°C° 0.4 mm 1 mps 736 mmHg 89%
    01:00 +21°C° 0.4 mm 1 mps 736 mmHg 90%
    02:00 +20°C° 0.3 mm 1 mps 736 mmHg 91%
    03:00 +20°C° 0.3 mm 1 mps 736 mmHg 92%
    04:00 +20°C° 0.3 mm 1 mps 736 mmHg 93%
    05:00 +20°C° 0.2 mm 1 mps 736 mmHg 91%
    06:00 +21°C° 0.2 mm 1 mps 737 mmHg 90%
    07:00 +20°C° 0.2 mm 0 mps 737 mmHg 89%
    08:00 +23°C° 0.1 mm 1 mps 737 mmHg 83%
    09:00 +25°C° 0.1 mm 1 mps 737 mmHg 77%
    10:00 +26°C° 0.1 mm 2 mps 737 mmHg 71%
    11:00 +27°C° 0.3 mm 1 mps 737 mmHg 66%
    12:00 +28°C° 0.3 mm 1 mps 737 mmHg 61%
    13:00 +29°C° 0.3 mm 1 mps 737 mmHg 57%
    14:00 +29°C° 0.3 mm 1 mps 737 mmHg 58%
    15:00 +29°C° 0.3 mm 1 mps 737 mmHg 59%
    16:00 +29°C° 0.3 mm 2 mps 737 mmHg 60%
    17:00 +27°C° 0.2 mm 1 mps 737 mmHg 65%
    18:00 +25°C° 0.2 mm 1 mps 737 mmHg 70%
    19:00 +23°C° 0.2 mm 1 mps 737 mmHg 76%
    20:00 +22°C° 0 mm 1 mps 737 mmHg 78%
    21:00 +22°C° 0 mm 1 mps 738 mmHg 81%
    22:00 +21°C° 0 mm 1 mps 738 mmHg 83%
    23:00 +20°C° 0 mm 1 mps 738 mmHg 85%
    Show more